Location: Herborn
(50.6814°N, 8.3037°E)
Time: 20:39:06
(UTC+00:00)

Daily predictions for brighter satellites

Satellite Brightness Start Highest point End
(mag) Time Altitude Azimuth Time Altitude Azimuth Time Altitude Azimuth
Gblst 52 Del rocket 4.3 20:16:57 10° WNW 20:22:33 82° SSW 20:28:42 10° ESE
USA 215 4.0 20:17:31 10° ENE 20:23:06 29° SE 20:28:37 10° S
Cosmos 1818 3.6 20:18:05 10° SSW 20:23:29 72° SE 20:28:56 10° NE
Cosmos 2360 Rocket 2.2 20:18:53 10° SSW 20:24:32 81° ESE 20:30:15 10° NNE
SPOT 5 3.4 20:23:53 10° SE 20:28:40 48° ENE 20:33:14 10° N
Atlas Centaur 2 4.3 20:29:52 10° SSW 20:31:19 11° S 20:32:50 10° SSE
Landsat 7 3.9 20:27:23 10° SSE 20:32:09 86° WSW 20:36:57 10° NNW
Cosmos 1825 Rocket 3.6 20:29:20 10° S 20:33:46 77° E 20:38:15 10° NNE
CZ-2C R/B 4.1 20:29:17 10° N 20:34:23 41° WNW 20:39:20 10° SW
Cosmos 2333 Rocket 2.6 20:30:33 10° S 20:35:53 43° ESE 20:41:17 10° NE
GEOS 3 Rocket 3.9 20:33:41 10° NE 20:38:56 50° SE 20:44:08 10° SSW
SL-16 R/B 3.8 20:39:46 10° WSW 20:45:06 40° NW 20:50:28 10° NNE
Spot 2 Rocket 3.9 20:40:46 10° S 20:45:49 63° WSW 20:50:55 10° NNW
Cosmos 1315 Rocket 3.1 20:41:47 10° N 20:45:50 57° ENE 20:49:46 11° SSE
IGS 5A 4.0 20:43:31 10° S 20:47:37 59° W 20:51:45 10° NNW
ATLAS 5 CENTAUR R/B 1.7 20:48:45 10° SW 20:52:57 83° NW 20:57:47 10° NE
Cosmos 2278 Rocket 2.6 20:47:53 10° NNW 20:53:30 55° NE 20:58:50 11° SE
Cosmos 1892 4.4 20:51:28 11° SE 20:53:51 18° E 20:56:28 10° NE
CARTOSAT-1 3.6 20:49:48 10° SSE 20:54:06 86° ENE 20:58:27 10° NNW
USA 81 4.1 20:49:42 10° S 20:54:55 66° E 21:00:10 10° N
Cosmos 1844 Rocket 3.7 20:50:20 10° NW 20:55:30 40° WSW 21:00:38 10° S
Cosmos 1943 Rocket 4.5 20:52:25 10° N 20:56:02 17° NNE 20:59:40 10° ENE
USA 267 3.5 20:50:56 10° ESE 20:57:29 75° NNE 21:04:03 10° WNW
Cosmos 1709 Rocket 4.1 20:52:05 10° S 20:58:24 85° W 21:04:50 10° N
Meteor 1-11 4.3 20:59:08 10° S 21:04:46 87° E 21:10:31 10° NNE
Cosmos-2242 4.3 21:02:29 10° NNW 21:06:31 38° W 21:10:33 10° SSW
SPOT 1/Viking Rocket 4.1 21:01:29 10° S 21:06:32 55° W 21:11:38 10° NNW
SL-16 R/B 4.3 21:06:53 10° E 21:07:00 10° E 21:07:06 10° E
Cosmos 1400 Rocket 4.3 21:03:41 10° NNW 21:07:16 32° W 21:10:47 10° SSW
Cosmos 2221 2.7 21:07:22 10° N 21:11:44 61° ENE 21:15:14 15° SSE
Cosmos 2184 Rocket 4.3 21:08:51 11° SSE 21:14:43 54° E 21:20:51 10° NNE
Lacrosse 5 rocket 3.1 21:11:05 10° WNW 21:14:56 33° N 21:18:34 10° ENE
Resurs 01 Rocket 4.1 21:13:34 10° SW 21:16:19 16° W 21:19:04 10° NW
SAR-Lupe-2 4.1 21:14:32 10° N 21:18:05 60° WNW 21:21:37 10° SSW
Terra 1.8 21:14:58 13° SSE 21:19:10 86° WSW 21:23:59 10° NNW
TSX-5 3.6 21:23:43 10° NNW 21:27:10 89° NE 21:30:04 18° SSE
NOSS 3-4 (A) 3.9 21:22:18 10° NW 21:29:09 78° NE 21:36:03 13° SE
NOSS 3-4 (C) 3.9 21:22:24 10° NW 21:29:16 78° NE 21:36:11 13° SE
Cosmos 2058 3.4 21:27:37 17° SSE 21:30:27 44° E 21:34:24 10° NNE
NOSS 3-3 (A) 4.0 21:34:19 10° SW 21:40:15 86° SE 21:47:03 10° NE
NOSS 3-3 (C) 4.0 21:34:24 10° SW 21:40:22 85° SE 21:47:11 10° NE
Cosmos 1825 3.6 21:39:57 18° SE 21:41:38 25° E 21:44:45 10° NE
Cosmos 2369 Rocket 4.2 21:40:21 10° NNW 21:44:39 22° NE 21:48:56 10° E
JB-3 4.2 21:41:30 10° NNE 21:45:22 72° ESE 21:48:03 19° S
Cosmos 1980 3.9 21:41:49 12° S 21:46:49 54° ESE 21:52:19 10° NE
Aureole 2 Rocket 3.6 21:44:52 10° N 21:47:17 25° ENE 21:48:50 16° ESE
Cosmos 1538 Rocket 4.5 21:42:09 10° SW 21:47:29 65° WNW 21:52:48 10° NNE
Meteor 2-17 Rocket 4.4 21:43:29 14° S 21:48:50 79° E 21:54:55 10° NNE
Cosmos 1076 Rocket 3.6 21:47:33 20° S 21:50:27 63° E 21:54:41 10° NNE
Nadezhda 3 Rocket 4.1 21:44:06 10° N 21:50:31 78° E 21:55:18 19° SSE
COSMOS 2455 4.1 21:46:27 10° NNW 21:52:02 37° NE 21:57:38 10° ESE
COSMOS 2428 3.1 21:48:35 10° SW 21:54:13 67° WNW 21:59:55 10° NNE
Cosmos 2154 Rocket 4.0 21:49:47 16° S 21:54:42 69° E 22:00:54 10° NNE
ATLAS 2AS CENTAUR R/B 2.9 21:49:25 10° NW 21:57:07 85° SW 22:02:39 18° SE
Cosmos 2151 3.9 21:55:43 21° SE 21:57:51 35° E 22:01:44 10° NNE
Thor Agena Rocket 3.9 21:53:28 10° NNE 21:58:25 46° E 22:01:29 21° SSE
ATLAS CENTAUR R/B 3.0 21:56:33 10° WNW 21:59:10 19° WSW 22:00:56 14° SSW
Cosmos 1869 4.2 21:55:55 10° NNW 21:59:43 43° W 22:02:34 16° SSW
Cosmos 2074 Rocket 4.2 21:54:31 10° SSW 22:00:44 74° WNW 22:06:58 10° N
BREEZE-M DEB (TANK) 1.7 21:57:23 10° W 22:02:03 64° SSW 22:03:23 25° ESE
Genesis I 3.5 22:00:58 22° S 22:03:04 44° SE 22:06:48 10° NE
Cosmos 2237 Rocket 2.2 21:59:39 13° SSW 22:04:49 69° ESE 22:10:30 10° NNE
Cosmos 1371 Rocket 4.0 22:00:04 10° NNW 22:05:22 87° ENE 22:08:51 22° SSE
Cosmos 2219 Rocket 3.0 22:00:26 10° SW 22:05:52 52° NW 22:11:23 10° NNE
USA 215 3.2 22:00:09 10° ENE 22:06:46 79° SSE 22:13:20 10° SW
Spot 4 3.8 22:06:50 23° SSE 22:09:52 77° ENE 22:14:39 10° NNW
Cosmos 2344 3.7 22:05:03 11° SSW 22:11:59 52° ESE 22:19:43 10° NE
Cosmos 158 Rocket 3.8 22:09:32 18° SSW 22:13:11 74° ESE 22:18:07 10° NNE
Cosmos 1151 Rocket 3.9 22:09:16 10° N 22:13:21 38° ENE 22:15:44 21° SE
Cosmos 2112 Rocket 4.0 22:12:33 17° SSW 22:16:41 75° ESE 22:22:04 10° NNE
Elektron 1 4.4 22:15:08 16° SSW 22:17:38 67° SE 22:23:20 10° NE
CZ-4C R/B 3.9 22:11:34 10° NW 22:17:54 43° NNE 22:25:20 10° E
Cosmos 2333 Rocket 3.5 22:14:50 10° WSW 22:20:13 41° NW 22:25:40 10° NNE
Cosmos 1420 Rocket 4.4 22:15:07 10° NNW 22:20:21 60° ENE 22:23:56 20° SE
ALOS 2 3.1 22:18:57 23° SE 22:21:29 52° ENE 22:25:46 10° N
Iridium 2 3.8 22:20:02 10° N 22:23:51 69° W 22:25:48 27° S
EO 1 Del DPAF 3.1 22:24:21 10° NNE 22:28:08 75° ESE 22:29:55 29° S
Cosmos 2056 Rocket 3.7 22:23:47 10° NNW 22:29:11 72° WSW 22:32:26 25° S
Cosmos 1892 3.7 22:26:25 15° SW 22:29:14 42° WNW 22:32:53 10° N
NOSS 0 Rocket 4.1 22:23:55 10° SW 22:30:03 72° NW 22:36:16 10° NNE
GP-B 3.5 22:26:34 10° N 22:30:54 50° E 22:33:05 27° SSE
Cosmos 1633 4.5 22:32:54 16° ESE 22:33:57 18° E 22:36:26 10° NE
Cosmos 1295 Rocket 4.5 22:29:34 18° SSW 22:34:14 81° W 22:40:22 10° N
Cosmos 1606 2.8 22:31:48 10° N 22:35:42 73° E 22:37:25 32° SSE
RESURS DK-1 4.4 22:33:33 10° N 22:36:55 23° NE 22:40:16 10° E
Cosmos 2278 Rocket 3.4 22:32:25 10° NW 22:37:18 30° WSW 22:40:40 17° SSW
ATLAS 5 CENTAUR R/B 4.2 22:34:32 10° WNW 22:38:20 26° NNW 22:42:36 10° NE
Cosmos 1408 3.3 22:37:56 21° SW 22:40:00 48° WNW 22:43:30 10° N
Cosmos 2297 3.7 22:34:33 10° NNW 22:40:20 85° WSW 22:43:52 24° SSE
USA 267 3.6 22:36:39 22° SSE 22:40:45 49° SW 22:47:07 10° WNW
Cosmos 1943 Rocket 2.7 22:35:31 10° NNW 22:41:07 55° NE 22:45:29 16° SE
MOS 1-B Rocket 4.4 22:33:41 10° NNE 22:41:34 87° ESE 22:46:38 19° SSW
Cosmos 44 3.3 22:40:51 29° S 22:42:40 49° ESE 22:46:57 10° NE
Gbstr 26 Del rocket 4.1 22:44:20 22° ESE 22:44:20 22° ESE 22:46:49 10° E
Cosmos 1680 Rocket 4.0 22:39:45 11° SW 22:44:48 61° WNW 22:50:07 10° NNE
Cosmos 371 Rocket 3.3 22:43:48 10° NNW 22:48:42 86° ENE 22:51:21 27° SSE
SL-16 R/B 2.3 22:46:35 24° S 22:49:54 59° ESE 22:55:30 10° NE
IRIDIUM 104 4.4 22:49:58 27° S 22:52:51 72° E 22:58:04 10° N
APEX 2.5 22:50:32 10° NNW 22:53:16 66° ENE 22:53:52 47° ESE
CREW DRAGON DEMO-1 DEB 2.7 22:53:17 40° SW 22:54:07 59° SSE 22:57:08 10° ENE
Cosmos 405 4.1 22:51:24 10° N 22:54:42 35° ENE 22:56:11 24° ESE
Lacrosse 5 rocket 2.0 22:50:42 10° NW 22:54:42 52° NNE 22:58:28 10° E
Cosmos 1452 Rocket 3.6 22:50:52 10° NNW 22:56:11 77° ENE 22:59:20 25° SSE
Terra 4.2 22:55:34 10° WSW 22:57:40 13° W 22:59:46 10° WNW
Cosmos 1515 Rocket 3.8 22:53:42 10° N 22:58:01 60° ENE 23:00:08 28° SSE
IRIDIUM 114 4.3 22:59:06 27° S 23:02:00 85° E 23:07:16 10° N
Cosmos 1766 Rocket 3.6 23:01:32 29° SSW 23:03:46 79° W 23:08:13 10° N
Cosmos 1328 Rocket 3.5 22:59:51 10° NNW 23:04:10 74° W 23:06:06 32° S
Okean 3 Rocket 3.9 23:07:35 25° SSW 23:10:03 61° WNW 23:14:28 10° N
IRIDIUM 103 4.3 23:08:14 27° S 23:11:10 82° W 23:16:25 10° N
Meteor 2-3 Rocket 3.7 23:12:54 27° S 23:16:07 77° E 23:21:52 10° NNE
Cosmos 1340 2.6 23:15:33 37° SSW 23:16:57 88° WNW 23:20:45 10° NNE
Cosmos 1825 3.7 23:14:44 17° SW 23:17:02 30° WNW 23:20:26 10° N
Cosmos 2228 Rocket 3.6 23:14:29 10° N 23:19:02 56° ENE 23:21:26 26° SE
Cosmos 864 Rocket 4.5 23:16:19 25° S 23:20:14 87° W 23:26:35 10° N
Aureole 2 Rocket 3.9 23:18:38 10° WNW 23:20:46 19° WSW 23:20:49 19° WSW
Cosmos 2218 Rocket 4.1 23:17:44 24° SSW 23:21:50 80° W 23:28:11 10° N
Meteor 1-26 Rocket 4.4 23:18:59 10° NNW 23:25:00 72° W 23:28:23 27° S
Cosmos 2366 rocket 4.1 23:21:57 24° SSW 23:26:03 78° W 23:32:27 10° N
Cosmos 2369 Rocket 2.2 23:23:54 10° NNW 23:29:33 83° ENE 23:33:18 22° SSE
Cosmos 1743 Rocket 3.6 23:29:40 33° SSE 23:31:30 65° E 23:35:50 10° NNE
Cosmos 304 Rocket 3.7 23:27:43 10° NNW 23:32:34 79° WSW 23:35:01 29° SSE
SL-4 R/B 2.3 23:33:31 24° WNW 23:33:31 24° WNW 23:34:47 10° NW
Cosmos 1933 4.3 23:30:20 10° NNW 23:34:01 35° W 23:35:34 26° SW
Cosmos 1821 Rocket 4.3 23:30:58 24° SSE 23:34:34 56° E 23:40:30 10° NNE
YAOGAN 11 4.1 23:33:15 32° S 23:35:14 77° WSW 23:39:42 10° NNW
Helios 1A 3.1 23:34:08 33° SSW 23:35:47 60° WSW 23:39:54 10° NNW
COSMOS 2455 3.0 23:32:23 10° NW 23:38:20 61° WSW 23:41:47 26° S
Cosmos 1656 Rocket 4.1 23:34:18 10° NNW 23:39:39 56° NE 23:44:29 13° SE
ATLAS 2AS CENTAUR R/B 4.1 23:41:31 10° WNW 23:47:02 23° WSW 23:50:03 17° SW
Cosmos 2237 Rocket 4.0 23:44:27 10° WSW 23:49:23 29° NW 23:54:20 10° NNE
Cosmos 1812 3.4 23:45:45 10° N 23:49:31 49° ENE 23:51:26 25° SE
USA 215 3.9 23:43:14 10° ENE 23:49:40 58° NNW 23:56:04 10° W
CRYOSAT 2 4.5 23:46:23 10° N 23:51:14 69° E 23:53:46 28° S
Cosmos 1782 3.2 23:47:48 10° NNW 23:51:39 51° W 23:53:04 33° SSW
CZ-2D R/B 4.1 23:50:01 10° NE 23:53:32 18° E 23:57:04 10° SE
Cosmos 1408 Rocket 4.4 23:52:07 22° SW 23:54:29 42° WNW 23:58:43 10° N
